TimeMDT,TemperatureF,Dew PointF,Humidity,Sea Level PressureIn,VisibilityMPH,Wind Direction,Wind SpeedMPH,Gust SpeedMPH,PrecipitationIn,Events,Conditions,WindDirDegrees,DateUTC
12:55 AM,39.9,26.1,58,29.93,10.0,Calm,Calm,-,N/A,,Clear,0,2013-05-06 06:55:00
1:55 AM,42.1,27.0,55,29.91,10.0,Calm,Calm,-,N/A,,Clear,0,2013-05-06 07:55:00
2:55 AM,41.0,27.0,57,29.91,10.0,SSE,4.6,-,N/A,,Clear,150,2013-05-06 08:55:00
3:55 AM,34.0,25.0,70,29.93,10.0,NW,3.5,-,N/A,,Clear,310,2013-05-06 09:55:00
4:55 AM,37.9,27.0,65,29.93,10.0,Calm,Calm,-,N/A,,Clear,0,2013-05-06 10:55:00
5:55 AM,36.0,27.0,70,29.95,10.0,Calm,Calm,-,N/A,,Clear,0,2013-05-06 11:55:00
6:55 AM,36.0,25.0,64,29.97,10.0,Calm,Calm,-,N/A,,Clear,0,2013-05-06 12:55:00
7:55 AM,42.1,28.0,58,29.97,10.0,Calm,Calm,-,N/A,,Clear,0,2013-05-06 13:55:00
8:55 AM,45.0,30.0,56,29.96,10.0,Calm,Calm,-,N/A,,Clear,0,2013-05-06 14:55:00
9:55 AM,50.0,28.9,44,29.94,10.0,Calm,Calm,-,N/A,,Clear,0,2013-05-06 15:55:00
10:55 AM,55.9,30.9,39,29.91,10.0,Calm,Calm,-,N/A,,Clear,0,2013-05-06 16:55:00
11:55 AM,61.0,30.0,31,29.87,10.0,NNE,5.8,-,N/A,,Clear,30,2013-05-06 17:55:00
12:55 PM,66.0,28.0,24,29.84,10.0,Calm,Calm,-,N/A,,Clear,0,2013-05-06 18:55:00
1:55 PM,69.1,26.1,20,29.79,10.0,Variable,4.6,-,N/A,,Clear,0,2013-05-06 19:55:00
2:55 PM,70.0,19.0,14,29.77,10.0,ESE,3.5,-,N/A,,Clear,120,2013-05-06 20:55:00
3:55 PM,71.1,19.0,14,29.77,10.0,ENE,3.5,-,N/A,,Partly Cloudy,70,2013-05-06 21:55:00
4:30 PM,66.2,28.4,24,29.88,10.0,SSW,23.0,33.4,N/A,,Overcast,200,2013-05-06 22:30:00
4:55 PM,61.0,33.1,35,29.83,6.0,SSW,15.0,28.8,0.01,Rain,Light Rain,200,2013-05-06 22:55:00
5:55 PM,64.0,32.0,30,29.82,10.0,SSE,10.4,-,0.00,,Overcast,150,2013-05-06 23:55:00
6:55 PM,64.0,28.9,27,29.81,10.0,Calm,Calm,-,N/A,,Clear,0,2013-05-07 00:55:00
7:55 PM,64.0,30.0,28,29.78,10.0,NW,4.6,-,N/A,,Clear,320,2013-05-07 01:55:00
8:55 PM,55.9,30.0,37,29.81,10.0,NW,3.5,-,N/A,,Clear,310,2013-05-07 02:55:00
9:55 PM,52.0,27.0,38,29.83,10.0,Calm,Calm,-,N/A,,Clear,0,2013-05-07 03:55:00
10:55 PM,50.0,28.0,43,29.83,10.0,WNW,3.5,-,N/A,,Clear,290,2013-05-07 04:55:00
11:55 PM,50.0,28.9,44,29.82,10.0,Calm,Calm,-,N/A,,Clear,0,2013-05-07 05:55:00